Probability
0 0 0 0 0 0 0 0 0 0 0 0 0 0 0 0 0 0 0 0 0 0 0 1 0 0 0 1 2 1 0 0 0 0 0 0 0 1 2 1 0 0 0
0 0 0 0 0 0 0 0 0 0 0 0 0 0 0 0 0 0 0 0 0 0 0 1 0 0 0 1 2 1 0 0 0 0 0 0 0 2 2 1 0 0 0
0 0 0 0 0 0 0 0 0 0 0 0 0 0 0 0 0 0 0 0 0 0 0 0 0 0 0 1 1 0 0 0 0 0 0 1 1 2 3 2 1 0 0
0 0 0 0 0 0 0 0 0 0 0 0 0 0 0 0 0 0 0 0 0 0 0 0 0 0 0 0 0 0 0 0 0 0 1 2 2 3 4 4 3 1 0
0 0 0 0 0 0 0 0 0 0 0 0 0 0 0 0 0 0 0 0 0 0 0 0 0 0 0 0 0 0 0 0 0 0 1 2 3 3 4 4 4 3 1
0 0 0 0 0 0 0 0 0 0 0 0 0 0 0 0 0 0 0 0 0 0 0 0 0 0 0 0 0 0 0 0 0 0 0 1 1 3 3 4 5 4 2
0 0 0 0 0 0 0 0 0 0 0 0 0 0 0 0 0 0 0 0 0 0 0 0 0 0 0 0 0 0 0 0 0 0 0 0 1 2 3 3 4 5 4
0 0 0 0 0 0 0 0 0 0 0 0 0 0 0 0 0 0 0 0 0 0 0 0 0 0 0 0 0 0 0 0 0 0 0 0 1 2 3 3 3 4 5
0 0 0 0 0 0 0 0 0 0 0 0 0 0 0 0 0 0 0 0 0 0 0 0 0 0 0 0 0 0 0 0 0 0 0 0 1 2 3 3 3 3 3
0 0 0 0 0 0 0 0 0 0 0 0 0 0 0 0 0 0 0 0 0 0 0 0 0 0 0 0 0 0 0 0 0 0 0 0 0 1 2 3 3 2 1
1 0 0 0 0 0 0 1 1 1 1 0 0 0 0 0 0 0 0 0 0 0 0 0 0 0 0 0 0 0 1 1 1 0 0 0 0 0 2 2 2 1 0
1 1 0 0 0 0 0 1 2 2 2 1 0 0 0 0 0 0 0 0 0 0 0 0 0 0 0 0 0 0 1 1 1 0 0 0 0 1 1 2 2 1 1
1 1 0 0 0 0 0 0 1 3 3 1 1 0 0 0 0 0 0 0 0 0 0 0 0 0 0 0 0 0 0 0 0 0 0 0 1 1 1 1 2 2 2
0 0 0 0 0 0 0 0 1 2 3 3 2 1 1 1 1 0 0 0 0 0 0 0 0 0 0 0 0 0 0 0 0 0 0 0 1 2 1 1 2 3 2
0 0 0 0 0 0 0 0 0 1 2 3 3 3 2 2 1 0 0 0 0 0 0 0 0 0 0 0 0 0 0 0 0 0 0 0 1 1 1 1 2 2 2
0 0 0 0 0 0 0 0 0 0 1 2 2 2 2 1 0 0 0 0 0 0 0 0 0 0 0 0 0 0 0 0 0 0 0 0 0 0 0 0 1 1 2
0 0 0 0 0 0 0 0 0 1 1 1 2 1 1 0 0 0 0 0 0 0 0 0 0 0 0 0 0 0 0 0 0 0 0 0 0 0 0 0 0 0 1
0 0 0 0 0 0 0 0 1 2 2 2 2 2 1 0 0 0 0 0 0 0 0 0 0 0 0 0 0 0 0 0 0 0 0 0 0 0 0 0 1 1 1
0 0 0 0 0 0 0 0 1 3 3 3 3 3 2 1 0 0 0 0 0 0 0 0 0 0 0 0 0 0 0 0 0 0 0 0 0 0 0 0 0 1 1
0 0 0 0 0 0 0 1 2 3 3 3 3 3 3 2 0 0 0 0 0 0 0 0 0 0 0 0 0 0 0 0 0 0 0 0 0 0 0 0 0 0 1
0 0 0 0 0 0 0 1 2 2 3 3 3 2 2 1 1 1 0 0 0 0 0 0 0 0 0 0 0 0 0 0 0 0 0 0 0 1 1 0 0 0 0
0 0 0 0 0 0 0 0 1 1 1 2 1 1 1 1 2 2 1 0 0 0 0 0 0 0 0 0 0 0 0 0 0 0 0 0 0 1 2 1 0 0 0
0 0 0 0 0 0 0 0 0 0 0 0 1 1 1 1 3 2 1 0 0 0 0 0 0 0 0 0 0 0 0 0 0 0 0 0 0 1 1 1 0 0 1
0 0 0 0 0 0 0 0 0 0 0 0 1 2 3 3 3 2 1 0 0 0 0 0 0 0 0 0 0 0 0 0 0 0 0 0 0 0 0 0 1 1 2
0 0 0 0 0 0 0 0 0 0 0 1 1 3 3 3 3 2 1 0 0 0 0 0 0 0 0 0 0 0 0 0 0 0 0 0 0 0 0 0 1 2 2
0 0 0 0 0 0 0 0 0 0 1 2 2 3 3 3 3 1 0 0 0 0 0 0 0 0 0 0 0 0 0 0 0 0 0 0 0 0 0 0 1 1 1
Wind_Speed
2 3 4 4 5 7 7 8 8 8 8 9 9 9 8 8 8 8 8 8 8 8 8 8 8 8 8 8 8 7 6 6 6 5 5 5 4 4 3 3 2 3 5
3 4 5 5 5 6 7 7 8 9 9 9 9 9 9 9 8 9 8 8 8 9 9 9 9 8 8 8 7 7 6 6 5 5 3 4 4 3 3 3 2 3 3
4 5 5 5 5 6 7 7 8 8 9 8 8 9 9 8 9 9 8 8 8 8 9 8 8 8 8 8 7 7 7 6 5 3 0 1 4 4 3 3 3 3 2
5 4 5 6 6 6 7 7 8 8 8 8 8 9 9 8 8 9 9 9 9 8 8 8 8 8 8 8 8 7 7 6 4 1 0 2 3 6 3 3 3 2 2
5 5 7 5 6 6 7 7 7 8 8 9 8 8 8 9 9 9 10 9 9 9 8 8 8 8 8 8 8 7 7 6 3 2 3 3 3 5 4 3 3 2 2
5 5 7 5 6 6 7 7 7 8 8 8 8 8 8 8 9 9 9 9 9 9 8 7 7 7 7 7 7 7 7 5 2 3 3 3 3 6 5 4 3 3 3
6 6 7 7 7 7 7 7 7 8 8 8 8 8 9 9 9 9 9 9 8 8 8 7 7 7 7 7 7 7 6 5 3 3 3 3 5 6 5 5 4 4 4
6 6 7 8 7 7 7 8 8 8 8 8 8 9 9 9 8 9 9 9 9 9 8 8 8 8 8 8 7 7 6 6 3 4 4 5 8 7 6 6 6 5 5
5 5 5 6 7 7 8 8 8 8 9 8 9 9 9 8 8 9 8 9 9 9 9 9 9 8 8 8 8 7 6 5 4 4 4 5 8 7 6 6 6 6 6
5 5 5 5 5 5 7 8 8 8 8 9 9 9 8 8 8 7 7 8 9 9 9 9 10 10 9 9 9 8 4 2 5 5 4 7 8 7 6 6 6 6 6
5 4 4 4 5 5 5 7 6 7 7 6 7 7 4 4 6 6 10 8 8 9 9 9 9 8 6 8 8 5 2 3 5 5 5 8 7 7 7 7 6 6 6
5 4 4 4 4 4 4 4 3 4 4 4 4 4 3 4 5 5 8 8 8 7 7 7 5 3 1 3 4 1 3 4 4 4 6 8 7 6 6 7 6 6 6
5 4 4 4 4 4 3 3 2 2 2 3 3 4 3 3 3 3 3 4 4 3 3 4 2 3 3 3 3 3 4 4 3 4 6 9 8 7 7 7 7 7 7
5 4 4 4 4 3 3 3 2 2 2 2 2 3 2 2 2 3 2 3 2 2 3 2 2 3 3 3 3 4 5 3 3 3 6 9 9 8 7 7 7 7 6
5 5 4 3 3 3 3 2 2 2 2 3 2 2 3 2 2 2 2 2 3 2 2 2 2 4 3 4 4 4 5 5 4 4 4 8 9 8 7 7 7 7 7
5 5 5 3 3 3 3 2 2 2 2 2 2 2 2 2 2 2 3 3 3 3 3 2 3 3 2 2 3 4 4 4 4 4 4 5 7 8 7 7 7 7 7
5 5 5 4 3 3 2 2 2 1 2 2 2 2 2 2 2 2 2 2 2 2 2 2 3 2 2 2 2 3 3 4 3 4 4 3 3 6 7 8 7 7 7
5 5 5 3 3 3 2 2 1 1 2 1 2 1 2 2 3 2 2 2 2 2 2 2 2 2 2 2 2 2 2 2 3 3 2 3 3 3 5 8 7 7 7
5 5 5 4 3 3 2 2 1 2 2 1 1 1 1 2 2 2 2 1 2 1 2 2 2 2 2 2 1 1 1 2 2 2 3 3 3 2 3 4 5 7 7
5 6 5 5 4 3 2 2 2 2 2 1 1 1 1 1 1 1 1 1 1 1 1 2 2 2 2 1 1 1 1 1 1 2 2 2 3 3 3 2 2 4 6
6 6 6 6 5 4 3 2 2 2 2 1 1 1 1 1 1 1 0 1 1 1 1 1 1 2 1 1 0 1 1 1 1 1 2 2 2 3 2 2 2 2 2
8 7 6 6 5 4 3 2 2 2 1 1 1 1 1 1 1 1 1 1 1 1 1 1 1 1 1 1 1 1 1 2 1 1 1 2 2 2 2 2 2 2 2
8 8 6 6 6 5 4 3 3 2 2 2 2 1 1 1 1 0 0 0 0 1 1 1 1 0 0 1 2 3 2 1 1 1 1 1 2 2 1 2 2 2 2
9 8 8 7 6 5 5 4 4 3 3 2 2 2 2 1 1 1 1 0 0 0 1 1 1 0 1 0 0 2 2 3 2 1 1 1 2 2 2 1 2 2 2
9 8 7 7 6 6 6 5 5 4 2 2 2 2 2 2 2 1 1 1 1 1 1 1 1 1 1 1 1 1 1 2 3 2 2 1 1 1 2 2 1 1 2
7 7 7 7 7 6 6 6 5 5 4 4 3 3 2 2 2 2 2 2 1 1 1 1 2 1 1 1 1 1 1 2 2 2 2 2 1 1 1 1 1 1 1
Wind_Direction
91 81 74 68 68 70 73 76 76 83 86 86 87 87 88 86 83 86 88 91 92 89 86 82 82 78 78 78 77 79 79 78 78 78 79 84 90 98 101 112 149 136 100
95 91 85 74 74 74 75 78 82 82 85 85 85 85 85 85 82 87 89 88 87 85 84 80 76 74 75 74 73 75 75 73 72 71 78 107 101 89 84 83 40 57 90
98 97 103 79 77 77 77 76 84 86 88 88 85 83 85 83 82 84 87 89 86 84 83 80 79 76 74 72 69 69 70 70 70 67 167 114 107 96 83 79 75 76 88
96 93 87 82 77 77 78 77 79 85 87 88 85 84 84 83 83 83 83 87 86 85 83 78 76 75 74 69 66 65 64 60 55 323 53 62 81 89 85 84 84 84 86
95 89 86 81 78 75 75 80 80 83 85 85 84 82 82 82 81 81 81 81 82 80 76 75 75 75 73 69 66 63 61 51 24 327 47 51 63 74 71 69 70 66 63
99 93 91 84 81 76 74 81 82 83 84 84 83 80 77 77 78 79 79 78 77 76 72 69 71 72 72 71 68 63 54 34 320 31 37 44 69 74 67 65 57 52 45
103 96 95 85 81 80 76 80 81 82 83 82 83 79 72 73 76 79 77 74 73 73 73 70 69 67 65 66 65 60 48 9 9 33 33 48 61 62 59 58 50 50 44
97 97 99 94 81 78 75 71 74 77 79 78 79 77 73 71 72 75 75 72 69 70 71 69 69 68 64 63 61 55 38 355 39 37 43 59 63 58 56 53 46 44 46
98 96 96 107 105 93 79 72 72 74 73 73 74 72 72 72 72 71 72 71 70 71 69 67 66 69 64 64 63 57 47 13 19 39 45 57 59 52 52 49 44 42 47
101 97 95 93 95 103 103 83 75 72 71 72 71 69 69 73 74 72 77 73 72 70 68 67 64 63 60 61 59 53 33 347 36 41 42 58 53 49 50 51 46 43 47
108 103 101 95 88 86 91 97 97 91 79 85 86 82 87 86 82 84 65 67 73 71 69 67 64 65 69 78 61 38 356 35 46 40 45 47 45 46 47 49 49 47 47
129 119 110 107 103 98 93 101 96 93 92 81 78 87 82 76 70 68 82 72 74 76 82 72 69 87 64 77 85 29 37 40 44 52 54 45 42 45 48 47 49 53 52
133 123 120 118 107 105 107 98 88 85 86 86 82 87 84 82 94 89 94 104 94 88 79 90 112 63 57 55 36 46 43 35 41 45 52 44 42 45 48 51 49 53 56
141 134 124 121 116 113 107 100 102 100 94 89 82 80 82 75 66 69 69 68 68 68 57 50 46 62 55 57 52 52 57 46 45 46 56 43 38 42 45 49 49 49 53
149 145 133 130 121 114 104 97 103 95 92 92 71 66 81 78 70 74 70 63 59 60 66 51 50 57 47 44 43 41 48 49 46 48 65 55 40 38 42 45 47 46 49
160 154 138 141 131 129 126 126 109 106 103 89 91 79 86 89 84 78 75 66 57 48 44 43 51 55 53 49 42 45 40 39 41 52 49 71 57 39 37 40 43 43 43
162 156 147 149 143 138 131 111 105 110 107 91 86 82 87 86 90 86 74 77 67 55 47 39 46 42 51 55 51 46 43 31 22 40 45 36 63 67 46 37 36 37 38
166 160 151 155 157 143 136 130 123 116 107 104 105 86 84 94 88 79 70 67 66 57 48 48 33 37 45 43 37 40 40 43 26 31 43 47 34 38 70 47 34 33 35
174 169 164 166 163 152 150 143 127 118 111 108 111 100 92 92 94 96 71 51 61 55 45 47 44 23 38 40 34 26 19 37 35 25 34 35 37 27 54 81 60 42 36
179 176 171 168 170 158 164 152 132 121 112 103 106 110 90 91 98 104 115 97 73 69 53 54 71 51 33 23 26 31 36 61 54 32 21 26 18 27 31 38 71 81 57
183 181 174 177 170 167 165 167 156 146 127 112 114 104 115 122 116 105 127 103 72 68 47 46 67 83 65 7 299 127 145 139 60 59 13 6 37 27 21 44 23 22 76
186 186 181 179 179 174 171 167 159 142 136 114 106 96 93 115 132 150 174 150 135 111 80 53 69 30 70 354 321 282 211 162 122 74 18 359 19 38 27 28 38 43 27
190 188 185 182 176 172 171 161 146 143 158 156 147 127 117 117 115 158 171 182 162 181 112 69 86 56 12 44 354 324 315 346 344 132 44 8 20 15 34 25 20 30 32
192 188 188 184 178 171 173 177 179 185 182 176 164 163 167 158 155 208 213 228 204 169 149 170 108 89 294 359 57 337 338 340 294 275 179 37 24 16 17 22 15 15 25
187 187 189 185 181 178 183 184 198 198 186 169 172 171 172 162 182 198 210 213 227 237 243 234 226 248 271 295 314 303 299 285 290 292 296 314 340 21 20 6 15 20 25
182 183 187 190 183 184 188 190 196 196 187 180 184 177 181 173 187 198 215 213 207 227 250 252 247 241 263 274 280 280 281 286 298 293 285 292 314 0 9 8 351 19 11